[[{"header":{"parameterUnit":"m.s-1","parameterCategory":1,"la1":30.2991,"la2":30.254,"lo1":-89.0895,"lo2":-89.0444,"dy":0.0017,"dx":0.0017,"nx":28,"ny":28,"refTime":"2025-03-10T03:00:00:Z","depth":0,"parameterNumber":2,"parameterNumberName":"U-component_of_WINDS"},"data":[0,0,0,0,0,0,0,0,0,0,0,0,0,0,0,0,0,0,0,0,0,0,0,0,0,0,0,0,0,0,0,0,0,0,0,0,0,0,0,0,0,0,0,0,0,0,0,0,0,0,0,0,0,0,0,0,0,0,6.7548,6.7546,0,6.736,6.7358,6.7355,6.7108,6.7104,6.71,6.7096,6.6894,6.6893,6.6891,0,0,0,0,0,0,0,0,0,0,0,0,0,6.7692,6.7691,6.7548,6.7546,6.7544,6.736,6.7357,6.7355,6.7108,6.7104,6.7099,6.7094,6.6895,6.6893,6.6891,0,0,0,0,0,0,0,0,0,0,0,0,0,6.7579,6.769,6.7549,6.7399,6.7384,6.7361,6.7357,6.7354,6.711,6.7103,6.7097,6.7092,6.6896,6.6893,6.6891,6.6997,0,0,6.6884,6.6883,0,0,0,0,0,0,0,0,6.7586,6.7574,6.7423,6.7409,6.7392,6.7251,6.7334,6.7234,6.7111,6.7213,6.7096,6.7089,6.7018,6.7005,6.6982,6.6988,6.6979,6.6883,6.6882,6.6881,6.688,0,0,0,0,0,0,0,6.7594,6.7581,6.7473,6.7421,6.7402,6.734,6.7317,6.7314,6.7151,6.7204,6.7186,6.7167,6.7008,6.6985,6.6976,6.6976,6.6883,6.6881,6.688,6.6879,6.7065,6.7071,0,0,0,0,0,0,6.7625,6.7589,6.7479,6.7468,6.7476,6.7343,6.7317,6.7302,6.7151,6.7122,6.7172,6.7156,6.6992,6.6979,6.6968,6.7085,6.6881,6.6879,6.6877,6.7059,6.7066,6.7073,0,0,0,0,0,0,6.7629,6.7618,6.7487,6.7524,6.7502,6.7346,6.7332,6.7302,6.7279,6.7127,6.7096,6.718,6.6987,6.6971,6.6994,6.7075,6.6878,6.6875,6.7051,6.7061,6.707,6.732,0,0,0,0,0,0,6.7634,6.7621,6.766,6.7526,6.7501,6.7518,6.7337,6.7303,6.7277,6.7254,6.7126,6.7099,6.6981,6.6999,6.6991,6.7068,6.6873,6.7043,6.7056,6.7067,6.7304,6.7337,6.7366,0,0,0,0,0,6.764,6.7735,6.7663,6.7651,6.7547,6.7523,6.7508,6.7373,6.7284,6.7322,6.7226,6.7103,6.7068,6.7003,6.6993,6.707,6.7037,6.7052,6.7066,6.729,6.7331,6.7365,0,0,0,0,0,0,6.7877,6.7714,6.7633,6.7687,6.7622,6.7481,6.7524,6.742,6.7375,6.7355,6.7188,6.7161,6.7205,6.7139,6.707,6.7168,6.7034,6.7048,6.7209,6.7246,6.7276,6.7291,6.6872,0,0,0,0,0,6.7937,6.7932,6.7789,6.7851,6.7823,6.7681,6.7665,6.7568,6.7491,6.7461,6.7365,6.7295,6.7268,6.7253,6.722,6.7295,6.7264,6.7343,6.7374,6.74,6.7413,6.7452,6.7486,6.712,6.712,6.712,0,0,6.8058,6.7968,6.7974,6.7897,6.7834,6.7833,6.7658,6.7662,6.766,6.746,6.7477,6.7406,6.7316,6.7367,6.7384,6.7313,6.7508,6.7418,6.744,6.7438,6.747,6.7505,6.7536,6.713,6.7128,6.7127,0,0,6.8278,6.821,6.8255,6.8198,6.8108,6.8014,6.8026,6.7903,6.7849,6.7865,6.7716,6.7711,6.7667,6.761,6.7576,6.7784,6.767,6.7778,6.7938,6.7978,6.8007,6.8031,6.8108,6.8137,6.7791,6.7792,6.7792,0,6.8438,6.8432,6.8291,6.8308,6.8279,6.8104,6.815,6.81,6.8003,6.7987,6.791,6.7857,6.7783,6.782,6.7873,6.785,6.7859,6.779,6.8015,6.8038,6.8059,6.813,6.8159,6.7806,6.7804,6.7803,6.7801,0,6.8636,6.8635,6.8682,6.8598,6.8574,6.8606,6.847,6.8463,6.8371,6.8285,6.8306,6.8213,6.816,6.8162,6.8068,6.8188,6.8147,6.8046,6.7908,6.811,6.8174,6.8199,6.7825,6.7821,6.7816,6.7813,0,0,6.8994,6.8838,6.8857,6.8819,6.871,6.8705,6.8731,6.8683,6.8682,6.8622,6.8639,6.8611,6.8518,6.848,6.8379,6.8415,6.859,6.8308,6.8303,6.8365,6.8719,6.8797,6.883,6.8515,6.852,6.8523,6.8727,0,6.9194,6.9229,6.9106,6.9172,6.9171,6.9008,6.903,6.8966,6.8889,6.8876,6.8788,6.8773,6.865,6.8627,6.8655,6.8563,6.8658,6.8546,6.8529,6.853,6.8557,6.8863,6.8943,6.914,6.8751,6.8755,6.8758,0,6.943,6.9389,6.9457,6.9349,6.9344,6.9366,6.9315,6.9305,6.923,6.9172,6.9134,6.9021,6.9038,6.891,6.8932,6.8859,6.8845,6.88,6.8805,6.8796,6.8656,6.8864,6.9198,6.9229,6.8795,6.8792,6.8789,0,6.9688,6.9649,6.9685,6.9657,6.9532,6.9552,6.9501,6.942,6.9402,6.9357,6.9344,6.9302,6.9279,6.9249,6.9128,6.9045,6.9166,6.9026,6.9118,6.9122,6.9149,6.9149,6.9487,6.9142,6.9141,6.9141,6.914,0,6.9923,6.9971,6.98,6.9822,6.9873,6.9732,6.9786,6.9718,6.965,6.9656,6.9512,6.9522,6.9361,6.9353,6.9259,6.9294,6.9284,6.9237,6.9211,6.925,6.9256,6.9237,6.9221,6.9148,6.9146,6.9145,6.9144,0,7.0218,7.0105,7.0134,7.0016,6.9988,7.0031,6.9929,6.9945,6.9862,6.9873,6.9867,6.9736,6.9719,6.9597,6.9551,6.9488,6.9559,6.9506,6.9586,6.9569,6.9668,6.9661,7.0006,7.0045,6.9676,6.9679,6.9682,0,7.0375,7.0409,7.0297,7.0293,7.025,7.0244,7.0226,7.0091,7.0078,7.0,7.0027,7.0,6.9971,6.9954,6.9853,6.982,6.9765,6.9889,6.9758,6.9798,6.9768,6.9768,6.9772,6.9916,6.992,6.9924,6.9927,0,7.0667,7.0612,7.0592,7.0556,7.054,7.0503,7.0457,7.0462,7.0313,7.0307,7.0291,7.027,7.0228,7.0204,7.0154,7.0099,6.999,6.997,6.999,7.0029,7.0074,7.0053,6.9662,6.9962,6.9958,6.9956,6.9954,6.9952,7.0898,7.0923,7.085,7.0834,7.0787,7.075,7.0761,7.0682,7.0667,7.0624,7.0546,7.0543,7.0472,7.0395,7.0351,7.0347,7.0281,7.031,7.0316,7.0326,7.0348,7.0077,7.0337,7.0336,7.0335,7.0334,7.0333,0,7.1184,7.1131,7.1118,7.1062,7.1052,7.0954,7.09,7.0897,7.0897,7.0842,7.0819,7.0803,7.0781,7.0683,7.065,7.0666,7.0616,7.0663,7.0659,7.065,7.0406,7.0393,7.0705,7.0705,7.0704,7.0704,7.0704,7.0704,7.1331,7.1369,7.1306,7.1321,7.1266,7.1264,7.1243,7.1209,7.1164,7.1155,7.1137,7.1075,7.1002,7.0965,7.0942,7.0913,7.0908,7.0972,7.0928,7.0702,7.0666,7.0632,7.0619,7.0972,7.0973,7.1171,7.1173,7.1174]},{"header":{"parameterUnit":"m.s-1","parameterCategory":1,"la1":30.2991,"la2":30.254,"lo1":-89.0895,"lo2":-89.0444,"dy":0.0017,"dx":0.0017,"nx":28,"ny":28,"refTime":"2025-03-10T03:00:00:Z","depth":0,"parameterNumber":3,"parameterNumberName":"V-component_of_WINDS"},"data":[0,0,0,0,0,0,0,0,0,0,0,0,0,0,0,0,0,0,0,0,0,0,0,0,0,0,0,0,0,0,0,0,0,0,0,0,0,0,0,0,0,0,0,0,0,0,0,0,0,0,0,0,0,0,0,0,0,0,-2.9276,-2.9275,0,-2.9191,-2.919,-2.9189,-2.9089,-2.9088,-2.9086,-2.9085,-2.8997,-2.8996,-2.8995,0,0,0,0,0,0,0,0,0,0,0,0,0,-2.9355,-2.9354,-2.9276,-2.9275,-2.9274,-2.9191,-2.919,-2.9188,-2.9089,-2.9087,-2.9086,-2.9084,-2.8997,-2.8996,-2.8995,0,0,0,0,0,0,0,0,0,0,0,0,0,-2.93,-2.9353,-2.9276,-2.9215,-2.9208,-2.9191,-2.9189,-2.9188,-2.909,-2.9087,-2.9085,-2.9083,-2.8998,-2.8996,-2.8995,-2.9032,0,0,-2.8991,-2.899,0,0,0,0,0,0,0,0,-2.9303,-2.9297,-2.9225,-2.9219,-2.9212,-2.9148,-2.9185,-2.9136,-2.909,-2.9135,-2.9085,-2.9082,-2.9049,-2.9043,-2.9032,-2.9028,-2.9024,-2.8991,-2.899,-2.8989,-2.8989,0,0,0,0,0,0,0,-2.9307,-2.93,-2.9242,-2.9224,-2.9216,-2.9191,-2.9181,-2.9175,-2.9106,-2.9131,-2.9123,-2.9114,-2.9045,-2.9034,-2.903,-2.9022,-2.8991,-2.8989,-2.8989,-2.8988,-2.9045,-2.9047,0,0,0,0,0,0,-2.932,-2.9304,-2.9245,-2.924,-2.9253,-2.9192,-2.918,-2.9171,-2.9105,-2.9093,-2.9117,-2.911,-2.9037,-2.9031,-2.9026,-2.9065,-2.8989,-2.8988,-2.8987,-2.9043,-2.9045,-2.9048,0,0,0,0,0,0,-2.9322,-2.9316,-2.9248,-2.927,-2.9259,-2.9193,-2.9183,-2.917,-2.9159,-2.9095,-2.9082,-2.9118,-2.9035,-2.9028,-2.9031,-2.9061,-2.8987,-2.8986,-2.904,-2.9043,-2.9047,-2.9144,0,0,0,0,0,0,-2.9325,-2.9317,-2.933,-2.9271,-2.9259,-2.9255,-2.9185,-2.917,-2.9157,-2.9148,-2.9092,-2.9081,-2.9033,-2.9034,-2.903,-2.9058,-2.8985,-2.9037,-2.9041,-2.9046,-2.9138,-2.915,-2.9161,0,0,0,0,0,-2.9328,-2.936,-2.9331,-2.9325,-2.9273,-2.9257,-2.925,-2.9194,-2.916,-2.9172,-2.9131,-2.9083,-2.9059,-2.9035,-2.903,-2.9057,-2.9035,-2.904,-2.9045,-2.9132,-2.9148,-2.9161,0,0,0,0,0,0,-2.9424,-2.9352,-2.9318,-2.9332,-2.9302,-2.924,-2.9254,-2.9212,-2.919,-2.9182,-2.9114,-2.9102,-2.9114,-2.9086,-2.9061,-2.909,-2.904,-2.9044,-2.9108,-2.9122,-2.9133,-2.914,-2.8984,0,0,0,0,0,-2.9447,-2.944,-2.9377,-2.9395,-2.9382,-2.9321,-2.9312,-2.9271,-2.9237,-2.9223,-2.9182,-2.9151,-2.9136,-2.9127,-2.911,-2.9133,-2.912,-2.915,-2.9162,-2.9172,-2.9176,-2.9188,-2.92,-2.9065,-2.9065,-2.9065,0,0,-2.9494,-2.9454,-2.9453,-2.9414,-2.9385,-2.9379,-2.931,-2.9307,-2.9302,-2.9222,-2.9223,-2.9192,-2.9153,-2.9167,-2.9171,-2.9144,-2.9211,-2.9178,-2.9187,-2.9186,-2.9194,-2.9207,-2.9219,-2.9069,-2.9068,-2.9068,0,0,-2.9577,-2.9546,-2.9558,-2.9531,-2.9489,-2.9449,-2.9452,-2.9397,-2.9374,-2.9374,-2.9314,-2.9308,-2.9283,-2.9258,-2.9242,-2.9317,-2.9272,-2.9314,-2.9374,-2.9386,-2.9397,-2.9406,-2.9434,-2.9444,-2.9319,-2.9319,-2.9319,0,-2.9641,-2.9629,-2.957,-2.957,-2.9555,-2.9484,-2.9496,-2.9473,-2.9428,-2.9419,-2.9389,-2.9359,-2.9327,-2.9334,-2.9353,-2.9342,-2.9344,-2.9319,-2.94,-2.9409,-2.9417,-2.9442,-2.9453,-2.9324,-2.9324,-2.9323,-2.9323,0,-2.971,-2.9703,-2.9719,-2.9677,-2.9664,-2.967,-2.9612,-2.9606,-2.9568,-2.9531,-2.9533,-2.9492,-2.9466,-2.9465,-2.9427,-2.9468,-2.9452,-2.9413,-2.9361,-2.9436,-2.9459,-2.9468,-2.9332,-2.933,-2.9328,-2.9327,0,0,-2.9849,-2.9776,-2.9783,-2.9764,-2.9713,-2.9707,-2.9711,-2.9686,-2.9682,-2.9654,-2.9656,-2.9638,-2.9601,-2.9583,-2.9542,-2.9553,-2.9617,-2.9512,-2.951,-2.9533,-2.966,-2.969,-2.9703,-2.9587,-2.9589,-2.959,-2.9664,0,-2.9923,-2.9925,-2.9873,-2.989,-2.9884,-2.9817,-2.982,-2.979,-2.9756,-2.9746,-2.9709,-2.9698,-2.965,-2.9639,-2.9647,-2.9607,-2.9641,-2.9601,-2.9589,-2.9589,-2.9601,-2.9714,-2.9746,-2.9817,-2.9672,-2.9673,-2.9675,0,-3.0008,-2.9986,-3.0003,-2.9953,-2.9948,-2.9952,-2.9926,-2.9917,-2.9882,-2.9857,-2.9838,-2.9791,-2.9793,-2.9744,-2.9745,-2.9719,-2.9711,-2.9692,-2.9693,-2.9689,-2.9636,-2.9714,-2.9838,-2.9849,-2.9688,-2.9687,-2.9686,0,-3.0109,-3.0083,-3.009,-3.0075,-3.0017,-3.0022,-2.9998,-2.996,-2.9949,-2.9926,-2.9919,-2.9896,-2.9884,-2.9868,-2.9818,-2.9787,-2.9825,-2.9772,-2.9805,-2.9807,-2.9816,-2.9816,-2.9941,-2.9811,-2.9811,-2.9811,-2.981,0,-3.0197,-3.021,-3.0134,-3.0139,-3.0152,-3.0092,-3.0106,-3.0076,-3.0044,-3.0041,-2.9982,-2.9981,-2.9914,-2.9906,-2.9867,-2.9875,-2.9869,-2.985,-2.9839,-2.9855,-2.9858,-2.9848,-2.9842,-2.9813,-2.9813,-2.9812,-2.9812,0,-3.0311,-3.0261,-3.0264,-3.0209,-3.0196,-3.0208,-3.0161,-3.0163,-3.0126,-3.0124,-3.012,-3.0063,-3.0051,-2.9999,-2.9974,-2.9947,-2.9969,-2.9947,-2.9981,-2.9974,-3.001,-3.0007,-3.0133,-3.0147,-3.0009,-3.001,-3.0011,0,-3.037,-3.0378,-3.0325,-3.0319,-3.0298,-3.029,-3.0278,-3.022,-3.0211,-3.0173,-3.018,-3.0163,-3.0146,-3.013,-3.0086,-3.0067,-3.0045,-3.0091,-3.0042,-3.0058,-3.0047,-3.0047,-3.0048,-3.0101,-3.0103,-3.0105,-3.0106,0,-3.048,-3.0455,-3.0441,-3.0419,-3.0407,-3.0387,-3.0363,-3.0362,-3.0298,-3.029,-3.0277,-3.0265,-3.024,-3.0224,-3.0199,-3.0174,-3.013,-3.0122,-3.0128,-3.0145,-3.0164,-3.0155,-3.0009,-3.0119,-3.0118,-3.0117,-3.0116,-3.0115,-3.0568,-3.0573,-3.0537,-3.0524,-3.05,-3.048,-3.0479,-3.0443,-3.0431,-3.0407,-3.0373,-3.0365,-3.0331,-3.0292,-3.0272,-3.0265,-3.024,-3.0249,-3.0252,-3.0255,-3.0263,-3.0165,-3.026,-3.0259,-3.0259,-3.0259,-3.0258,0,-3.0676,-3.065,-3.0638,-3.0607,-3.0597,-3.0557,-3.0529,-3.0523,-3.0517,-3.0489,-3.0474,-3.046,-3.0445,-3.0401,-3.0382,-3.0385,-3.0365,-3.0382,-3.0381,-3.0377,-3.0286,-3.0283,-3.0399,-3.0399,-3.0399,-3.0399,-3.0399,-3.0399,-3.0731,-3.0738,-3.0709,-3.0704,-3.0677,-3.0669,-3.0657,-3.0638,-3.0616,-3.0603,-3.059,-3.0562,-3.0528,-3.0506,-3.0491,-3.0478,-3.0474,-3.0499,-3.048,-3.0396,-3.0383,-3.037,-3.0366,-3.0499,-3.0499,-3.0571,-3.0572,-3.0572]}]]